<?xml version="1.0" encoding="UTF-8" standalone="no" ?>
<gpx xmlns="http://www.topografix.com/GPX/1/1" xmlns:xsi="http://www.w3.org/2001/XMLSchema-instance" xsi:schemaLocation="http://www.topografix.com/GPX/1/1 http://www.topografix.com/GPX/1/1/gpx.xsd" version="1.1" creator="VisuGPX - https://www.visugpx.com">
  <metadata>
    <name>Tiffauges</name>
    <desc><![CDATA[Randonnée de 15km, départ parking la Grossière]]></desc>
  </metadata>
  <trk>
    <name><![CDATA[Tiffauges_1]]></name>
    <trkseg>
      <trkpt lat="47.02924" lon="-1.14673">
        <ele>50</ele>
        <time>2013-12-01T09:15:45Z</time>
      </trkpt>
      <trkpt lat="47.0283" lon="-1.14595">
        <ele>47.7</ele>
        <time>2013-12-01T09:15:45Z</time>
      </trkpt>
      <trkpt lat="47.02765" lon="-1.14498">
        <ele>47.4</ele>
        <time>2013-12-01T09:15:45Z</time>
      </trkpt>
      <trkpt lat="47.02724" lon="-1.14359">
        <ele>51.3</ele>
        <time>2013-12-01T09:15:45Z</time>
      </trkpt>
      <trkpt lat="47.02716" lon="-1.14202">
        <ele>53.1</ele>
        <time>2013-12-01T09:15:45Z</time>
      </trkpt>
      <trkpt lat="47.02677" lon="-1.14046">
        <ele>52.7</ele>
        <time>2013-12-01T09:15:45Z</time>
      </trkpt>
      <trkpt lat="47.02634" lon="-1.13899">
        <ele>49.4</ele>
        <time>2013-12-01T09:15:45Z</time>
      </trkpt>
      <trkpt lat="47.02591" lon="-1.13756">
        <ele>52</ele>
        <time>2013-12-01T09:15:45Z</time>
      </trkpt>
      <trkpt lat="47.02553" lon="-1.13629">
        <ele>52.9</ele>
        <time>2013-12-01T09:15:45Z</time>
      </trkpt>
      <trkpt lat="47.02485" lon="-1.13531">
        <ele>46.8</ele>
        <time>2013-12-01T09:15:45Z</time>
      </trkpt>
      <trkpt lat="47.02444" lon="-1.13415">
        <ele>45.2</ele>
        <time>2013-12-01T09:15:45Z</time>
      </trkpt>
      <trkpt lat="47.02395" lon="-1.13296">
        <ele>49.5</ele>
        <time>2013-12-01T09:15:45Z</time>
      </trkpt>
      <trkpt lat="47.02356" lon="-1.13177">
        <ele>55.7</ele>
        <time>2013-12-01T09:15:45Z</time>
      </trkpt>
      <trkpt lat="47.02381" lon="-1.13039">
        <ele>57.1</ele>
        <time>2013-12-01T09:15:45Z</time>
      </trkpt>
      <trkpt lat="47.02408" lon="-1.12906">
        <ele>50.6</ele>
        <time>2013-12-01T09:15:45Z</time>
      </trkpt>
      <trkpt lat="47.02391" lon="-1.12767">
        <ele>48.2</ele>
        <time>2013-12-01T09:15:45Z</time>
      </trkpt>
      <trkpt lat="47.02309" lon="-1.12704">
        <ele>49</ele>
        <time>2013-12-01T09:15:45Z</time>
      </trkpt>
      <trkpt lat="47.02245" lon="-1.1261">
        <ele>48.3</ele>
        <time>2013-12-01T09:15:45Z</time>
      </trkpt>
      <trkpt lat="47.02208" lon="-1.12472">
        <ele>46.5</ele>
        <time>2013-12-01T09:15:45Z</time>
      </trkpt>
      <trkpt lat="47.02199" lon="-1.12327">
        <ele>47.2</ele>
        <time>2013-12-01T09:15:45Z</time>
      </trkpt>
      <trkpt lat="47.02178" lon="-1.12173">
        <ele>46.2</ele>
        <time>2013-12-01T09:15:45Z</time>
      </trkpt>
      <trkpt lat="47.02158" lon="-1.12011">
        <ele>47.4</ele>
        <time>2013-12-01T09:15:45Z</time>
      </trkpt>
      <trkpt lat="47.02133" lon="-1.11861">
        <ele>47.6</ele>
        <time>2013-12-01T09:15:45Z</time>
      </trkpt>
      <trkpt lat="47.0209" lon="-1.11745">
        <ele>47.1</ele>
        <time>2013-12-01T09:15:45Z</time>
      </trkpt>
      <trkpt lat="47.0205" lon="-1.11629">
        <ele>47.6</ele>
        <time>2013-12-01T09:15:45Z</time>
      </trkpt>
      <trkpt lat="47.01977" lon="-1.11553">
        <ele>47.3</ele>
        <time>2013-12-01T09:15:45Z</time>
      </trkpt>
      <trkpt lat="47.01916" lon="-1.11456">
        <ele>45.1</ele>
        <time>2013-12-01T09:15:45Z</time>
      </trkpt>
      <trkpt lat="47.01868" lon="-1.1133">
        <ele>47.3</ele>
        <time>2013-12-01T09:15:45Z</time>
      </trkpt>
      <trkpt lat="47.01785" lon="-1.11273">
        <ele>48.5</ele>
        <time>2013-12-01T09:15:45Z</time>
      </trkpt>
      <trkpt lat="47.017" lon="-1.11203">
        <ele>49.6</ele>
        <time>2013-12-01T09:15:45Z</time>
      </trkpt>
      <trkpt lat="47.0165" lon="-1.11075">
        <ele>51.5</ele>
        <time>2013-12-01T09:15:45Z</time>
      </trkpt>
      <trkpt lat="47.01604" lon="-1.10938">
        <ele>50.4</ele>
        <time>2013-12-01T09:15:45Z</time>
      </trkpt>
      <trkpt lat="47.01596" lon="-1.108">
        <ele>50</ele>
        <time>2013-12-01T09:15:45Z</time>
      </trkpt>
      <trkpt lat="47.01569" lon="-1.1066">
        <ele>49.4</ele>
        <time>2013-12-01T09:15:45Z</time>
      </trkpt>
      <trkpt lat="47.0154" lon="-1.10522">
        <ele>50.8</ele>
        <time>2013-12-01T09:15:45Z</time>
      </trkpt>
      <trkpt lat="47.01562" lon="-1.10377">
        <ele>56.8</ele>
        <time>2013-12-01T09:15:45Z</time>
      </trkpt>
      <trkpt lat="47.01558" lon="-1.10233">
        <ele>59.4</ele>
        <time>2013-12-01T09:15:45Z</time>
      </trkpt>
      <trkpt lat="47.01588" lon="-1.10108">
        <ele>69.9</ele>
        <time>2013-12-01T09:15:45Z</time>
      </trkpt>
      <trkpt lat="47.01674" lon="-1.10089">
        <ele>84.9</ele>
        <time>2013-12-01T09:15:45Z</time>
      </trkpt>
      <trkpt lat="47.01756" lon="-1.10108">
        <ele>90.2</ele>
        <time>2013-12-01T09:15:45Z</time>
      </trkpt>
      <trkpt lat="47.01803" lon="-1.10045">
        <ele>92.3</ele>
        <time>2013-12-01T09:15:45Z</time>
      </trkpt>
      <trkpt lat="47.01787" lon="-1.09892">
        <ele>92.3</ele>
        <time>2013-12-01T09:15:45Z</time>
      </trkpt>
      <trkpt lat="47.01805" lon="-1.09772">
        <ele>91.8</ele>
        <time>2013-12-01T09:15:45Z</time>
      </trkpt>
      <trkpt lat="47.01783" lon="-1.09621">
        <ele>91.2</ele>
        <time>2013-12-01T09:15:45Z</time>
      </trkpt>
      <trkpt lat="47.01761" lon="-1.09457">
        <ele>87.8</ele>
        <time>2013-12-01T09:15:45Z</time>
      </trkpt>
      <trkpt lat="47.01789" lon="-1.09361">
        <ele>87</ele>
        <time>2013-12-01T09:15:45Z</time>
      </trkpt>
      <trkpt lat="47.01771" lon="-1.09231">
        <ele>92.7</ele>
        <time>2013-12-01T09:15:45Z</time>
      </trkpt>
      <trkpt lat="47.01797" lon="-1.0909">
        <ele>91.8</ele>
        <time>2013-12-01T09:15:45Z</time>
      </trkpt>
      <trkpt lat="47.01867" lon="-1.09006">
        <ele>87.1</ele>
        <time>2013-12-01T09:15:45Z</time>
      </trkpt>
      <trkpt lat="47.01795" lon="-1.08968">
        <ele>74</ele>
        <time>2013-12-01T09:15:45Z</time>
      </trkpt>
      <trkpt lat="47.01708" lon="-1.08939">
        <ele>61.6</ele>
        <time>2013-12-01T09:15:45Z</time>
      </trkpt>
      <trkpt lat="47.01635" lon="-1.08995">
        <ele>54.8</ele>
        <time>2013-12-01T09:15:45Z</time>
      </trkpt>
      <trkpt lat="47.01575" lon="-1.09058">
        <ele>51.2</ele>
        <time>2013-12-01T09:15:45Z</time>
      </trkpt>
      <trkpt lat="47.01553" lon="-1.09013">
        <ele>56.5</ele>
        <time>2013-12-01T09:15:45Z</time>
      </trkpt>
      <trkpt lat="47.01487" lon="-1.08914">
        <ele>53.1</ele>
        <time>2013-12-01T09:15:45Z</time>
      </trkpt>
      <trkpt lat="47.01423" lon="-1.08813">
        <ele>52.1</ele>
        <time>2013-12-01T09:15:45Z</time>
      </trkpt>
      <trkpt lat="47.01374" lon="-1.08702">
        <ele>57.9</ele>
        <time>2013-12-01T09:15:45Z</time>
      </trkpt>
      <trkpt lat="47.01313" lon="-1.08613">
        <ele>61.9</ele>
        <time>2013-12-01T09:15:45Z</time>
      </trkpt>
      <trkpt lat="47.01244" lon="-1.08527">
        <ele>54.2</ele>
        <time>2013-12-01T09:15:45Z</time>
      </trkpt>
      <trkpt lat="47.01245" lon="-1.08404">
        <ele>53.6</ele>
        <time>2013-12-01T09:15:45Z</time>
      </trkpt>
      <trkpt lat="47.01226" lon="-1.08302">
        <ele>50.2</ele>
        <time>2013-12-01T09:15:45Z</time>
      </trkpt>
      <trkpt lat="47.01188" lon="-1.08307">
        <ele>53.9</ele>
        <time>2013-12-01T09:15:45Z</time>
      </trkpt>
      <trkpt lat="47.01115" lon="-1.08378">
        <ele>65</ele>
        <time>2013-12-01T09:15:45Z</time>
      </trkpt>
      <trkpt lat="47.01065" lon="-1.08498">
        <ele>77.6</ele>
        <time>2013-12-01T09:15:45Z</time>
      </trkpt>
      <trkpt lat="47.01044" lon="-1.08641">
        <ele>86.7</ele>
        <time>2013-12-01T09:15:45Z</time>
      </trkpt>
      <trkpt lat="47.01028" lon="-1.08786">
        <ele>93.3</ele>
        <time>2013-12-01T09:15:45Z</time>
      </trkpt>
      <trkpt lat="47.00998" lon="-1.08926">
        <ele>97.4</ele>
        <time>2013-12-01T09:15:45Z</time>
      </trkpt>
      <trkpt lat="47.00959" lon="-1.09068">
        <ele>99</ele>
        <time>2013-12-01T09:15:45Z</time>
      </trkpt>
      <trkpt lat="47.00928" lon="-1.09212">
        <ele>100</ele>
        <time>2013-12-01T09:15:45Z</time>
      </trkpt>
      <trkpt lat="47.00906" lon="-1.09352">
        <ele>102.7</ele>
        <time>2013-12-01T09:15:45Z</time>
      </trkpt>
      <trkpt lat="47.00957" lon="-1.09476">
        <ele>103.6</ele>
        <time>2013-12-01T09:15:45Z</time>
      </trkpt>
      <trkpt lat="47.01013" lon="-1.09597">
        <ele>100.3</ele>
        <time>2013-12-01T09:15:45Z</time>
      </trkpt>
      <trkpt lat="47.01091" lon="-1.09594">
        <ele>93.9</ele>
        <time>2013-12-01T09:15:45Z</time>
      </trkpt>
      <trkpt lat="47.01133" lon="-1.09684">
        <ele>82.4</ele>
        <time>2013-12-01T09:15:45Z</time>
      </trkpt>
      <trkpt lat="47.01211" lon="-1.09631">
        <ele>76</ele>
        <time>2013-12-01T09:15:45Z</time>
      </trkpt>
      <trkpt lat="47.01292" lon="-1.0958">
        <ele>65.8</ele>
        <time>2013-12-01T09:15:45Z</time>
      </trkpt>
      <trkpt lat="47.0132" lon="-1.09689">
        <ele>55.2</ele>
        <time>2013-12-01T09:15:45Z</time>
      </trkpt>
      <trkpt lat="47.01341" lon="-1.09809">
        <ele>57.5</ele>
        <time>2013-12-01T09:15:45Z</time>
      </trkpt>
      <trkpt lat="47.01385" lon="-1.09922">
        <ele>55.4</ele>
        <time>2013-12-01T09:15:45Z</time>
      </trkpt>
      <trkpt lat="47.01428" lon="-1.10037">
        <ele>55</ele>
        <time>2013-12-01T09:15:45Z</time>
      </trkpt>
      <trkpt lat="47.01454" lon="-1.10163">
        <ele>52.2</ele>
        <time>2013-12-01T09:15:45Z</time>
      </trkpt>
      <trkpt lat="47.01463" lon="-1.10292">
        <ele>51.8</ele>
        <time>2013-12-01T09:15:45Z</time>
      </trkpt>
      <trkpt lat="47.01468" lon="-1.1042">
        <ele>51.1</ele>
        <time>2013-12-01T09:15:45Z</time>
      </trkpt>
      <trkpt lat="47.01479" lon="-1.10553">
        <ele>50.9</ele>
        <time>2013-12-01T09:15:45Z</time>
      </trkpt>
      <trkpt lat="47.01482" lon="-1.10674">
        <ele>56.3</ele>
        <time>2013-12-01T09:15:45Z</time>
      </trkpt>
      <trkpt lat="47.01504" lon="-1.10803">
        <ele>54</ele>
        <time>2013-12-01T09:15:45Z</time>
      </trkpt>
      <trkpt lat="47.01512" lon="-1.10947">
        <ele>51.8</ele>
        <time>2013-12-01T09:15:45Z</time>
      </trkpt>
      <trkpt lat="47.0151" lon="-1.11082">
        <ele>52.8</ele>
        <time>2013-12-01T09:15:45Z</time>
      </trkpt>
      <trkpt lat="47.01537" lon="-1.11216">
        <ele>49.5</ele>
        <time>2013-12-01T09:15:45Z</time>
      </trkpt>
      <trkpt lat="47.01568" lon="-1.1131">
        <ele>53</ele>
        <time>2013-12-01T09:15:45Z</time>
      </trkpt>
      <trkpt lat="47.01533" lon="-1.11439">
        <ele>66.4</ele>
        <time>2013-12-01T09:15:45Z</time>
      </trkpt>
      <trkpt lat="47.01495" lon="-1.11556">
        <ele>61.6</ele>
        <time>2013-12-01T09:15:45Z</time>
      </trkpt>
      <trkpt lat="47.0144" lon="-1.11675">
        <ele>54.7</ele>
        <time>2013-12-01T09:15:45Z</time>
      </trkpt>
      <trkpt lat="47.01418" lon="-1.1182">
        <ele>52.5</ele>
        <time>2013-12-01T09:15:45Z</time>
      </trkpt>
      <trkpt lat="47.01464" lon="-1.11795">
        <ele>54.2</ele>
        <time>2013-12-01T09:15:45Z</time>
      </trkpt>
      <trkpt lat="47.01518" lon="-1.11675">
        <ele>55.2</ele>
        <time>2013-12-01T09:15:45Z</time>
      </trkpt>
      <trkpt lat="47.01595" lon="-1.11645">
        <ele>53.5</ele>
        <time>2013-12-01T09:15:45Z</time>
      </trkpt>
      <trkpt lat="47.01677" lon="-1.11694">
        <ele>52</ele>
        <time>2013-12-01T09:15:45Z</time>
      </trkpt>
      <trkpt lat="47.01761" lon="-1.11691">
        <ele>53</ele>
        <time>2013-12-01T09:15:45Z</time>
      </trkpt>
      <trkpt lat="47.01804" lon="-1.11646">
        <ele>49.1</ele>
        <time>2013-12-01T09:15:45Z</time>
      </trkpt>
      <trkpt lat="47.01864" lon="-1.11548">
        <ele>46</ele>
        <time>2013-12-01T09:15:45Z</time>
      </trkpt>
      <trkpt lat="47.01937" lon="-1.11617">
        <ele>45.6</ele>
        <time>2013-12-01T09:15:45Z</time>
      </trkpt>
      <trkpt lat="47.01998" lon="-1.11726">
        <ele>46.3</ele>
        <time>2013-12-01T09:15:45Z</time>
      </trkpt>
      <trkpt lat="47.02031" lon="-1.11849">
        <ele>47.9</ele>
        <time>2013-12-01T09:15:45Z</time>
      </trkpt>
      <trkpt lat="47.02067" lon="-1.11967">
        <ele>50.4</ele>
        <time>2013-12-01T09:15:45Z</time>
      </trkpt>
      <trkpt lat="47.02084" lon="-1.12091">
        <ele>46.2</ele>
        <time>2013-12-01T09:15:45Z</time>
      </trkpt>
      <trkpt lat="47.02112" lon="-1.12212">
        <ele>46.8</ele>
        <time>2013-12-01T09:15:45Z</time>
      </trkpt>
      <trkpt lat="47.02121" lon="-1.12356">
        <ele>50.2</ele>
        <time>2013-12-01T09:15:45Z</time>
      </trkpt>
      <trkpt lat="47.02134" lon="-1.12499">
        <ele>48</ele>
        <time>2013-12-01T09:15:45Z</time>
      </trkpt>
      <trkpt lat="47.02105" lon="-1.12605">
        <ele>49.7</ele>
        <time>2013-12-01T09:15:45Z</time>
      </trkpt>
      <trkpt lat="47.02091" lon="-1.12735">
        <ele>51</ele>
        <time>2013-12-01T09:15:45Z</time>
      </trkpt>
      <trkpt lat="47.02086" lon="-1.12868">
        <ele>49.4</ele>
        <time>2013-12-01T09:15:45Z</time>
      </trkpt>
      <trkpt lat="47.02041" lon="-1.12991">
        <ele>54.7</ele>
        <time>2013-12-01T09:15:45Z</time>
      </trkpt>
      <trkpt lat="47.01979" lon="-1.13086">
        <ele>58.6</ele>
        <time>2013-12-01T09:15:45Z</time>
      </trkpt>
      <trkpt lat="47.01913" lon="-1.13162">
        <ele>62.6</ele>
        <time>2013-12-01T09:15:45Z</time>
      </trkpt>
      <trkpt lat="47.0184" lon="-1.13236">
        <ele>68.8</ele>
        <time>2013-12-01T09:15:45Z</time>
      </trkpt>
      <trkpt lat="47.01832" lon="-1.1332">
        <ele>71.1</ele>
        <time>2013-12-01T09:15:45Z</time>
      </trkpt>
      <trkpt lat="47.019" lon="-1.13408">
        <ele>66.2</ele>
        <time>2013-12-01T09:15:45Z</time>
      </trkpt>
      <trkpt lat="47.0199" lon="-1.13427">
        <ele>55.8</ele>
        <time>2013-12-01T09:15:45Z</time>
      </trkpt>
      <trkpt lat="47.02078" lon="-1.13427">
        <ele>48.4</ele>
        <time>2013-12-01T09:15:45Z</time>
      </trkpt>
      <trkpt lat="47.02168" lon="-1.13416">
        <ele>48</ele>
        <time>2013-12-01T09:15:45Z</time>
      </trkpt>
      <trkpt lat="47.02247" lon="-1.13365">
        <ele>46.2</ele>
        <time>2013-12-01T09:15:45Z</time>
      </trkpt>
      <trkpt lat="47.02305" lon="-1.13437">
        <ele>49.5</ele>
        <time>2013-12-01T09:15:45Z</time>
      </trkpt>
      <trkpt lat="47.02333" lon="-1.13555">
        <ele>55</ele>
        <time>2013-12-01T09:15:45Z</time>
      </trkpt>
      <trkpt lat="47.02335" lon="-1.13672">
        <ele>62.6</ele>
        <time>2013-12-01T09:15:45Z</time>
      </trkpt>
      <trkpt lat="47.02278" lon="-1.13783">
        <ele>75.2</ele>
        <time>2013-12-01T09:15:45Z</time>
      </trkpt>
      <trkpt lat="47.02185" lon="-1.13934">
        <ele>79.8</ele>
        <time>2013-12-01T09:15:45Z</time>
      </trkpt>
      <trkpt lat="47.02119" lon="-1.14024">
        <ele>79.3</ele>
        <time>2013-12-01T09:15:45Z</time>
      </trkpt>
      <trkpt lat="47.02089" lon="-1.14144">
        <ele>78.3</ele>
        <time>2013-12-01T09:15:45Z</time>
      </trkpt>
      <trkpt lat="47.02129" lon="-1.14279">
        <ele>82.7</ele>
        <time>2013-12-01T09:15:45Z</time>
      </trkpt>
      <trkpt lat="47.02163" lon="-1.1442">
        <ele>85.9</ele>
        <time>2013-12-01T09:15:45Z</time>
      </trkpt>
      <trkpt lat="47.02203" lon="-1.14545">
        <ele>87.9</ele>
        <time>2013-12-01T09:15:45Z</time>
      </trkpt>
      <trkpt lat="47.02246" lon="-1.14669">
        <ele>89.2</ele>
        <time>2013-12-01T09:15:45Z</time>
      </trkpt>
      <trkpt lat="47.02325" lon="-1.14729">
        <ele>87.5</ele>
        <time>2013-12-01T09:15:45Z</time>
      </trkpt>
      <trkpt lat="47.02388" lon="-1.14822">
        <ele>88</ele>
        <time>2013-12-01T09:15:45Z</time>
      </trkpt>
      <trkpt lat="47.02432" lon="-1.14948">
        <ele>85.4</ele>
        <time>2013-12-01T09:15:45Z</time>
      </trkpt>
      <trkpt lat="47.02507" lon="-1.15023">
        <ele>82.6</ele>
        <time>2013-12-01T09:15:45Z</time>
      </trkpt>
      <trkpt lat="47.02578" lon="-1.15107">
        <ele>79.3</ele>
        <time>2013-12-01T09:15:45Z</time>
      </trkpt>
      <trkpt lat="47.02661" lon="-1.15138">
        <ele>71.8</ele>
        <time>2013-12-01T09:15:45Z</time>
      </trkpt>
      <trkpt lat="47.02749" lon="-1.15151">
        <ele>63.7</ele>
        <time>2013-12-01T09:15:45Z</time>
      </trkpt>
      <trkpt lat="47.02828" lon="-1.15146">
        <ele>54.7</ele>
        <time>2013-12-01T09:15:45Z</time>
      </trkpt>
      <trkpt lat="47.02894" lon="-1.15083">
        <ele>46.3</ele>
        <time>2013-12-01T09:15:45Z</time>
      </trkpt>
      <trkpt lat="47.02903" lon="-1.14945">
        <ele>44</ele>
        <time>2013-12-01T09:15:45Z</time>
      </trkpt>
      <trkpt lat="47.0292" lon="-1.1481">
        <ele>42</ele>
        <time>2013-12-01T09:15:45Z</time>
      </trkpt>
      <trkpt lat="47.02943" lon="-1.14732">
        <ele>46</ele>
        <time>2013-12-01T09:15:45Z</time>
      </trkpt>
      <trkpt lat="47.02942" lon="-1.1473">
        <ele>45.9</ele>
        <time>2013-12-01T09:15:45Z</time>
      </trkpt>
      <trkpt lat="47.02941" lon="-1.14727">
        <ele>46</ele>
        <time>2013-12-01T09:15:45Z</time>
      </trkpt>
      <trkpt lat="47.02941" lon="-1.14725">
        <ele>46</ele>
        <time>2013-12-01T09:15:45Z</time>
      </trkpt>
      <trkpt lat="47.0294" lon="-1.14723">
        <ele>46</ele>
        <time>2013-12-01T09:15:45Z</time>
      </trkpt>
      <trkpt lat="47.02939" lon="-1.1472">
        <ele>46</ele>
        <time>2013-12-01T09:15:45Z</time>
      </trkpt>
      <trkpt lat="47.02937" lon="-1.14717">
        <ele>46.1</ele>
        <time>2013-12-01T09:15:45Z</time>
      </trkpt>
      <trkpt lat="47.02936" lon="-1.14714">
        <ele>46.2</ele>
        <time>2013-12-01T09:15:45Z</time>
      </trkpt>
      <trkpt lat="47.02934" lon="-1.14712">
        <ele>46.3</ele>
        <time>2013-12-01T09:15:45Z</time>
      </trkpt>
      <trkpt lat="47.02934" lon="-1.1471">
        <ele>46.3</ele>
        <time>2013-12-01T09:15:45Z</time>
      </trkpt>
      <trkpt lat="47.02933" lon="-1.14708">
        <ele>46.4</ele>
        <time>2013-12-01T09:15:45Z</time>
      </trkpt>
      <trkpt lat="47.02932" lon="-1.14706">
        <ele>46.5</ele>
        <time>2013-12-01T09:15:45Z</time>
      </trkpt>
      <trkpt lat="47.02931" lon="-1.14703">
        <ele>46.7</ele>
        <time>2013-12-01T09:15:45Z</time>
      </trkpt>
      <trkpt lat="47.02929" lon="-1.147">
        <ele>46.9</ele>
        <time>2013-12-01T09:15:45Z</time>
      </trkpt>
      <trkpt lat="47.02928" lon="-1.14698">
        <ele>47</ele>
        <time>2013-12-01T09:15:45Z</time>
      </trkpt>
      <trkpt lat="47.02927" lon="-1.14696">
        <ele>47.2</ele>
        <time>2013-12-01T09:15:45Z</time>
      </trkpt>
      <trkpt lat="47.02926" lon="-1.14693">
        <ele>47.5</ele>
        <time>2013-12-01T09:15:45Z</time>
      </trkpt>
      <trkpt lat="47.02925" lon="-1.14691">
        <ele>47.8</ele>
        <time>2013-12-01T09:15:45Z</time>
      </trkpt>
      <trkpt lat="47.02925" lon="-1.14688">
        <ele>48.2</ele>
        <time>2013-12-01T09:15:45Z</time>
      </trkpt>
      <trkpt lat="47.02925" lon="-1.14686">
        <ele>48.5</ele>
        <time>2013-12-01T09:15:45Z</time>
      </trkpt>
      <trkpt lat="47.02924" lon="-1.14683">
        <ele>48.8</ele>
        <time>2013-12-01T09:15:45Z</time>
      </trkpt>
      <trkpt lat="47.02925" lon="-1.14681">
        <ele>49.1</ele>
        <time>2013-12-01T09:15:45Z</time>
      </trkpt>
      <trkpt lat="47.02925" lon="-1.14681">
        <ele>49.1</ele>
        <time>2013-12-01T09:15:45Z</time>
      </trkpt>
    </trkseg>
  </trk>
</gpx>